CELESTIS-03

Last updated on Sat Aug 05 2023 00:03:40 GMT+0000 (Coordinated Universal Time)

1 26034U 99070C 23216.79138671 .16132198 30208-5 25273-2 0 9996 2 26034 98.2484 279.8799 0019621 255.0860 246.3677 16.33297855284534

Satellite not in orbit

CELESTIS-03